TIANMU-1 19

Last updated on Sat Apr 26 2025 00:02:18 GMT+0000 (Coordinated Universal Time)

1 58660U 23208A 25115.56020474 .00012361 00000+0 52225-3 0 9993 2 58660 97.4227 228.1875 0005289 7.2920 352.8393 15.23376269 73585
UTC large
Height (km)
Speed (km/s)
/
Latitude / Longitude
Inclination (degrees)
Orbital Period (minutes)
Azimuth
Elevation
Range (km)
Doppler Factor

Next 0 passes for location: London (51.5072 / 0.1276)

Sorry there are no passes over London.